Location: Herm
(49.4830°N, 2.4500°W)
Time: 11:39:06
(UTC+00:00)

NOAA 15 - Pass Details

Date: 29 October 2021
Orbit: 797 x 812 km, 98.7° (Epoch: 27 November)

Event Time Altitude Azimuth Distance (km) Brightness Sun altitude
Rises 07:14:11 0° 34° (NNE) 3,343 8.1 -7.0°
Reaches altitude 10° 07:19:19 10° 76° (ENE) 2,398 8.2 -6.1°
Maximum altitude 07:19:58 10° 83° (E) 2,382 8.4 -6.0°
Drops below altitude 10° 07:20:37 10° 91° (E) 2,395 8.7 -5.9°
Sets 07:25:41 0° 133° (SE) 3,312 9.0 -5.1°
